QPF
0.00 0.00 0.00 0.00 0.00 0.00 0.00 0.00 0.00 0.00 0.00 0.00 0.00 0.00 0.00 0.00 0.00 0.00 0.00 0.00 0.00 0.00 0.00 0.00 0.00 0.00 0.00 0.00 0.00 0.00 0.00 0.00 0.00 0.00 0.00 0.00 0.00 0.00 0.00 0.00 0.00 0.00 0.00 0.00
0.00 0.00 0.00 0.00 0.00 0.00 0.00 0.00 0.00 0.00 0.00 0.00 0.00 0.00 0.00 0.00 0.00 0.00 0.00 0.00 0.00 0.00 0.00 0.00 0.00 0.00 0.00 0.00 0.00 0.00 0.00 0.00 0.00 0.00 0.00 0.00 0.00 0.00 0.00 0.00 0.00 0.00 0.00 0.00
0.00 0.00 0.00 0.00 0.00 0.00 0.00 0.00 0.00 0.00 0.00 0.00 0.00 0.00 0.00 0.00 0.00 0.00 0.00 0.00 0.00 0.00 0.00 0.00 0.00 0.00 0.00 0.00 0.00 0.00 0.00 0.00 0.00 0.00 0.00 0.00 0.00 0.00 0.00 0.00 0.00 0.00 0.00 0.00
0.00 0.00 0.00 0.00 0.00 0.00 0.00 0.00 0.00 0.00 0.00 0.00 0.00 0.00 0.00 0.00 0.00 0.00 0.00 0.00 0.00 0.00 0.00 0.00 0.00 0.00 0.00 0.00 0.00 0.00 0.00 0.00 0.00 0.00 0.00 0.00 0.00 0.00 0.00 0.00 0.00 0.00 0.00 0.00
0.00 0.00 0.00 0.00 0.00 0.00 0.00 0.00 0.00 0.00 0.00 0.00 0.00 0.00 0.00 0.00 0.00 0.00 0.00 0.00 0.00 0.00 0.00 0.00 0.00 0.00 0.00 0.00 0.00 0.00 0.00 0.00 0.00 0.00 0.00 0.00 0.00 0.00 0.00 0.00 0.00 0.00 0.00 0.00
0.00 0.00 0.00 0.00 0.00 0.00 0.00 0.00 0.00 0.00 0.00 0.00 0.00 0.00 0.00 0.00 0.00 0.00 0.00 0.00 0.00 0.00 0.00 0.00 0.00 0.00 0.00 0.00 0.00 0.00 0.00 0.00 0.00 0.00 0.00 0.00 0.00 0.00 0.00 0.00 0.00 0.00 0.00 0.00
0.00 0.00 0.00 0.00 0.00 0.00 0.00 0.00 0.00 0.00 0.00 0.00 0.00 0.00 0.00 0.00 0.00 0.00 0.00 0.00 0.00 0.00 0.00 0.00 0.00 0.00 0.00 0.00 0.00 0.00 0.00 0.00 0.00 0.00 0.00 0.00 0.00 0.00 0.00 0.00 0.00 0.00 0.00 0.00
0.00 0.00 0.00 0.00 0.00 0.00 0.00 0.00 0.00 0.00 0.00 0.00 0.00 0.00 0.00 0.00 0.00 0.00 0.00 0.00 0.00 0.00 0.00 0.00 0.00 0.00 0.00 0.00 0.00 0.00 0.00 0.00 0.00 0.00 0.00 0.00 0.00 0.00 0.00 0.00 0.00 0.00 0.00 0.00
0.00 0.00 0.00 0.00 0.00 0.00 0.00 0.00 0.00 0.00 0.00 0.00 0.00 0.00 0.00 0.00 0.00 0.00 0.00 0.00 0.00 0.00 0.00 0.00 0.00 0.00 0.00 0.00 0.00 0.00 0.00 0.00 0.00 0.00 0.00 0.00 0.00 0.00 0.00 0.00 0.00 0.00 0.00 0.00
0.00 0.00 0.00 0.00 0.00 0.00 0.00 0.00 0.00 0.00 0.00 0.00 0.00 0.00 0.00 0.00 0.00 0.00 0.00 0.00 0.00 0.00 0.00 0.00 0.00 0.00 0.00 0.00 0.00 0.00 0.00 0.00 0.00 0.00 0.00 0.00 0.00 0.00 0.00 0.00 0.00 0.00 0.00 0.00
0.00 0.00 0.00 0.00 0.00 0.00 0.00 0.00 0.00 0.00 0.00 0.00 0.00 0.00 0.00 0.00 0.00 0.00 0.00 0.00 0.00 0.00 0.00 0.00 0.00 0.00 0.00 0.00 0.00 0.00 0.00 0.00 0.00 0.00 0.00 0.00 0.00 0.00 0.00 0.00 0.00 0.00 0.00 0.00
0.00 0.00 0.00 0.00 0.00 0.00 0.00 0.00 0.00 0.00 0.00 0.00 0.00 0.00 0.00 0.00 0.00 0.00 0.00 0.00 0.00 0.00 0.00 0.00 0.00 0.00 0.00 0.00 0.00 0.00 0.00 0.00 0.00 0.00 0.00 0.00 0.00 0.00 0.00 0.00 0.00 0.00 0.00 0.00
0.00 0.00 0.00 0.00 0.00 0.00 0.00 0.00 0.00 0.00 0.00 0.00 0.00 0.00 0.00 0.00 0.00 0.00 0.00 0.00 0.00 0.00 0.00 0.00 0.00 0.00 0.00 0.00 0.00 0.00 0.00 0.00 0.00 0.00 0.00 0.00 0.00 0.00 0.00 0.00 0.00 0.00 0.00 0.00
0.00 0.00 0.00 0.00 0.00 0.00 0.00 0.00 0.00 0.00 0.00 0.00 0.00 0.00 0.00 0.00 0.00 0.00 0.00 0.00 0.00 0.00 0.00 0.00 0.00 0.00 0.00 0.00 0.00 0.00 0.00 0.00 0.00 0.00 0.00 0.00 0.00 0.00 0.00 0.00 0.00 0.00 0.00 0.01
0.00 0.00 0.00 0.00 0.00 0.00 0.00 0.00 0.00 0.00 0.00 0.00 0.00 0.00 0.00 0.00 0.00 0.00 0.00 0.00 0.00 0.00 0.00 0.00 0.00 0.00 0.00 0.00 0.00 0.00 0.00 0.00 0.00 0.00 0.00 0.00 0.00 0.00 0.00 0.00 0.00 0.00 0.00 0.00
0.00 0.00 0.00 0.00 0.00 0.00 0.00 0.00 0.00 0.00 0.00 0.00 0.00 0.00 0.00 0.00 0.00 0.00 0.00 0.00 0.00 0.00 0.00 0.00 0.00 0.00 0.00 0.00 0.00 0.00 0.00 0.00 0.00 0.00 0.00 0.00 0.00 0.00 0.00 0.00 0.00 0.00 0.00 0.01
0.00 0.00 0.00 0.00 0.00 0.00 0.00 0.00 0.00 0.00 0.00 0.00 0.00 0.00 0.00 0.00 0.00 0.00 0.00 0.00 0.00 0.00 0.00 0.00 0.00 0.00 0.00 0.00 0.00 0.00 0.00 0.00 0.00 0.00 0.00 0.00 0.00 0.00 0.00 0.00 0.00 0.00 0.00 0.00
0.00 0.00 0.00 0.00 0.00 0.00 0.00 0.00 0.00 0.00 0.00 0.00 0.00 0.00 0.00 0.00 0.00 0.00 0.00 0.00 0.00 0.00 0.00 0.00 0.00 0.00 0.00 0.00 0.00 0.00 0.00 0.00 0.00 0.00 0.00 0.00 0.00 0.00 0.00 0.00 0.00 0.00 0.00 0.00
0.00 0.00 0.00 0.00 0.00 0.00 0.00 0.00 0.00 0.00 0.00 0.00 0.00 0.00 0.00 0.00 0.00 0.00 0.00 0.00 0.00 0.00 0.00 0.00 0.00 0.00 0.00 0.00 0.00 0.00 0.00 0.00 0.00 0.00 0.00 0.00 0.00 0.00 0.00 0.00 0.00 0.00 0.00 0.00
0.00 0.00 0.00 0.00 0.00 0.00 0.00 0.00 0.00 0.00 0.00 0.00 0.00 0.00 0.00 0.00 0.00 0.00 0.00 0.00 0.00 0.00 0.00 0.00 0.00 0.00 0.00 0.00 0.00 0.00 0.00 0.00 0.00 0.00 0.00 0.00 0.00 0.00 0.00 0.00 0.00 0.00 0.00 0.00
0.00 0.00 0.00 0.00 0.00 0.00 0.00 0.00 0.00 0.00 0.00 0.00 0.00 0.00 0.00 0.00 0.00 0.00 0.00 0.00 0.00 0.00 0.00 0.00 0.00 0.00 0.00 0.00 0.00 0.00 0.00 0.00 0.00 0.00 0.00 0.00 0.00 0.00 0.00 0.00 0.00 0.00 0.00 0.00
0.00 0.00 0.00 0.00 0.00 0.00 0.00 0.00 0.00 0.00 0.00 0.00 0.00 0.00 0.00 0.00 0.00 0.00 0.00 0.00 0.00 0.00 0.00 0.00 0.00 0.00 0.00 0.00 0.00 0.00 0.00 0.00 0.00 0.00 0.00 0.00 0.00 0.00 0.00 0.00 0.00 0.00 0.00 0.00
0.00 0.00 0.00 0.00 0.00 0.00 0.00 0.00 0.00 0.00 0.00 0.00 0.00 0.00 0.00 0.00 0.00 0.00 0.00 0.00 0.00 0.00 0.00 0.00 0.00 0.00 0.00 0.00 0.00 0.00 0.00 0.00 0.00 0.00 0.00 0.00 0.00 0.00 0.00 0.00 0.00 0.00 0.00 0.00
0.00 0.00 0.00 0.00 0.00 0.00 0.00 0.00 0.00 0.00 0.00 0.00 0.00 0.00 0.00 0.00 0.00 0.00 0.00 0.00 0.00 0.00 0.00 0.00 0.00 0.00 0.00 0.00 0.00 0.00 0.00 0.00 0.00 0.00 0.00 0.00 0.00 0.00 0.00 0.00 0.00 0.00 0.00 0.00
0.00 0.00 0.00 0.00 0.00 0.00 0.00 0.00 0.00 0.00 0.00 0.00 0.00 0.00 0.00 0.00 0.00 0.00 0.00 0.00 0.00 0.00 0.00 0.00 0.00 0.00 0.00 0.00 0.00 0.00 0.00 0.00 0.00 0.00 0.00 0.00 0.00 0.00 0.00 0.00 0.00 0.00 0.00 0.00
0.00 0.00 0.00 0.00 0.00 0.00 0.00 0.00 0.00 0.00 0.00 0.00 0.00 0.00 0.00 0.00 0.00 0.00 0.00 0.00 0.00 0.00 0.00 0.00 0.00 0.00 0.00 0.00 0.00 0.00 0.00 0.00 0.00 0.00 0.00 0.00 0.00 0.00 0.00 0.00 0.00 0.00 0.00 0.00
MSLP
1016.58 1017.58 1018.40 1018.91 1018.84 1018.92 1019.31 1019.70 1019.95 1019.30 1018.99 1018.76 1017.94 1017.40 1015.43 1013.81 1013.44 1013.12 1013.04 1012.99 1012.87 1012.87 1012.93 1012.77 1012.80 1012.75 1012.48 1012.17 1011.84 1011.44 1011.13 1010.79 1010.55 1010.42 1010.31 1010.05 1009.71 1009.15 1008.74 1008.43 1008.23 1008.06 1007.87 1007.97
1017.44 1018.15 1018.42 1018.74 1018.97 1019.06 1019.32 1019.62 1019.68 1019.05 1019.01 1019.45 1018.19 1016.88 1015.22 1013.96 1013.12 1012.77 1012.80 1013.28 1013.50 1013.60 1013.48 1013.34 1013.11 1012.78 1012.47 1012.18 1011.80 1011.54 1011.20 1010.79 1010.56 1010.33 1010.00 1009.65 1009.24 1008.78 1008.36 1007.84 1007.42 1007.25 1007.35 1007.42
1017.66 1018.10 1018.38 1018.71 1018.89 1019.24 1019.30 1019.52 1019.96 1020.41 1019.69 1019.07 1018.77 1016.68 1015.29 1013.93 1013.15 1013.02 1013.27 1013.57 1013.79 1013.92 1013.81 1013.52 1013.27 1013.04 1012.60 1012.16 1011.77 1011.51 1011.13 1010.77 1010.47 1010.25 1009.74 1009.22 1008.65 1008.14 1007.60 1007.19 1006.72 1006.57 1006.49 1006.35
1018.17 1018.40 1018.58 1018.76 1019.04 1019.47 1019.37 1019.68 1020.32 1020.73 1021.02 1020.73 1019.52 1018.33 1015.83 1014.53 1013.66 1013.54 1013.67 1014.03 1014.22 1014.27 1014.07 1013.85 1013.37 1012.76 1012.53 1012.14 1011.92 1011.51 1010.99 1010.55 1010.04 1009.77 1009.32 1008.97 1008.31 1007.42 1006.91 1006.53 1006.22 1005.96 1005.81 1005.74
1018.72 1018.81 1018.86 1018.96 1019.20 1019.62 1019.77 1020.13 1020.81 1021.25 1021.79 1021.66 1020.52 1019.62 1015.86 1014.98 1013.99 1013.90 1014.17 1014.47 1014.62 1014.43 1014.12 1013.70 1013.36 1012.98 1012.56 1012.19 1011.84 1011.44 1010.97 1010.49 1009.91 1009.40 1008.88 1008.24 1007.52 1006.93 1006.45 1006.13 1005.77 1005.28 1004.90 1004.71
1019.01 1019.19 1019.19 1019.21 1019.42 1019.88 1020.19 1020.80 1021.68 1022.23 1023.00 1022.94 1021.37 1020.15 1016.58 1015.16 1013.81 1013.89 1014.33 1014.46 1014.33 1014.28 1013.93 1013.65 1013.35 1013.03 1012.45 1012.19 1011.83 1011.28 1010.69 1009.99 1009.43 1008.92 1008.37 1007.80 1007.08 1006.44 1005.82 1005.46 1005.02 1004.52 1004.09 1003.80
1019.37 1019.50 1019.53 1019.54 1019.92 1020.35 1020.94 1021.99 1024.06 1024.80 1025.12 1024.07 1021.77 1020.50 1016.48 1014.48 1013.67 1013.75 1014.44 1014.65 1014.29 1014.07 1013.92 1013.52 1013.22 1012.86 1012.40 1012.03 1011.56 1011.02 1010.30 1009.38 1008.86 1008.21 1007.50 1006.84 1006.19 1005.51 1004.87 1004.57 1004.19 1003.88 1003.27 1002.82
1019.82 1019.93 1019.91 1019.82 1020.46 1021.06 1021.98 1023.21 1025.48 1027.10 1027.97 1025.57 1022.36 1019.87 1015.55 1013.77 1013.34 1013.65 1014.11 1014.40 1013.98 1013.98 1013.76 1013.49 1013.20 1012.87 1012.42 1011.89 1011.26 1010.47 1009.81 1008.79 1008.03 1007.36 1006.51 1005.77 1005.00 1004.36 1003.75 1003.35 1003.10 1002.71 1002.33 1002.09
1020.13 1020.17 1020.27 1020.34 1020.88 1021.73 1022.67 1023.83 1025.06 1027.24 1028.72 1027.47 1023.02 1019.02 1015.40 1013.37 1013.69 1013.78 1014.22 1013.80 1014.21 1013.98 1013.79 1013.51 1013.11 1012.94 1012.39 1011.70 1010.93 1010.26 1009.32 1008.27 1007.21 1006.29 1005.33 1004.43 1003.76 1003.19 1002.57 1002.17 1001.95 1001.63 1001.26 1001.04
1019.95 1020.64 1020.77 1021.09 1021.56 1022.28 1022.67 1023.88 1025.57 1027.65 1028.90 1027.78 1023.55 1020.69 1016.76 1014.35 1014.00 1014.16 1014.32 1014.65 1014.40 1014.08 1013.74 1013.28 1013.12 1012.83 1012.36 1011.69 1010.74 1009.85 1008.86 1007.63 1006.47 1005.32 1004.18 1002.98 1002.22 1001.91 1001.62 1001.13 1000.81 1000.63 1000.34 1000.16
1020.06 1020.74 1021.66 1021.60 1021.77 1021.87 1023.26 1024.04 1025.75 1027.04 1028.14 1028.16 1026.09 1019.52 1015.04 1014.03 1014.01 1014.59 1014.99 1014.78 1014.47 1014.17 1013.66 1013.22 1013.14 1012.90 1012.27 1011.61 1010.60 1009.43 1008.24 1007.05 1005.78 1004.52 1003.08 1001.54 1001.08 1000.90 1000.57 1000.20 999.84 999.64 999.62 999.53
1020.34 1021.14 1021.83 1021.26 1021.28 1021.39 1022.09 1023.06 1024.52 1026.42 1027.74 1027.41 1026.02 1019.39 1014.57 1013.99 1014.22 1014.68 1014.94 1014.86 1014.45 1014.21 1013.63 1013.54 1013.45 1012.95 1012.29 1011.51 1010.37 1009.17 1007.97 1006.78 1005.54 1004.08 1002.50 1000.96 1000.46 1000.13 999.84 999.50 999.24 998.96 998.92 998.89
1020.49 1021.43 1022.10 1021.93 1022.09 1021.86 1022.06 1022.54 1023.61 1025.21 1026.42 1026.58 1025.60 1018.75 1014.54 1014.20 1014.34 1014.75 1015.15 1014.70 1014.48 1014.38 1013.92 1013.85 1013.54 1013.03 1012.39 1011.48 1010.40 1009.21 1007.92 1006.63 1005.24 1003.84 1002.59 1001.32 1000.46 999.87 999.31 998.95 998.76 998.61 998.43 998.41
1020.55 1021.55 1021.97 1021.66 1020.92 1020.73 1021.58 1021.83 1022.70 1023.90 1026.00 1024.98 1021.96 1018.02 1014.46 1014.46 1015.04 1014.93 1014.99 1015.11 1015.06 1014.68 1014.41 1014.25 1013.65 1013.26 1012.58 1011.66 1010.58 1009.27 1007.98 1006.66 1005.35 1004.11 1002.95 1001.79 1000.93 1000.24 999.65 999.18 998.83 998.57 998.44 998.30
1021.20 1022.20 1022.47 1021.56 1021.25 1020.98 1020.72 1020.87 1021.67 1022.43 1022.53 1022.76 1018.84 1018.74 1015.44 1015.29 1015.56 1015.63 1015.83 1015.62 1015.37 1014.91 1014.60 1014.42 1013.92 1013.44 1012.72 1011.80 1010.78 1009.59 1008.37 1006.99 1005.77 1004.61 1003.55 1002.66 1001.88 1001.20 1000.49 999.97 999.50 999.21 998.99 998.99
1021.88 1022.67 1023.10 1022.21 1021.30 1020.83 1020.07 1019.14 1019.75 1020.72 1021.11 1020.82 1019.11 1017.74 1014.73 1014.72 1015.19 1015.75 1015.96 1016.17 1015.45 1015.18 1014.91 1014.69 1014.39 1013.72 1012.96 1012.02 1011.13 1010.10 1008.81 1007.59 1006.56 1005.42 1004.51 1003.75 1002.84 1002.05 1001.44 1000.87 1000.50 1000.20 1000.12 999.90
1022.55 1023.28 1024.04 1023.28 1021.78 1020.44 1018.44 1015.57 1017.42 1018.23 1018.33 1018.42 1018.60 1015.38 1014.32 1014.68 1015.48 1015.47 1015.52 1015.82 1015.46 1015.19 1015.09 1014.93 1014.75 1014.25 1013.50 1012.52 1011.60 1010.62 1009.41 1008.29 1007.27 1006.31 1005.54 1004.73 1004.00 1003.34 1002.85 1002.33 1001.81 1001.28 1001.24 1000.62
1022.77 1023.89 1024.51 1024.56 1022.54 1019.75 1015.10 1014.45 1014.85 1015.62 1015.32 1015.90 1015.34 1014.03 1013.94 1014.21 1014.54 1014.71 1014.99 1015.30 1015.19 1015.20 1015.24 1015.21 1015.12 1014.71 1013.95 1013.04 1012.04 1011.13 1010.09 1009.02 1008.12 1007.22 1006.48 1005.81 1005.21 1004.68 1004.27 1003.67 1003.02 1002.77 1002.73 1002.04
1022.60 1023.94 1025.33 1025.70 1024.10 1018.52 1013.88 1014.01 1014.39 1014.44 1012.91 1012.65 1013.27 1012.57 1012.89 1013.71 1013.97 1014.04 1014.28 1014.79 1014.90 1015.16 1015.41 1015.43 1015.50 1015.26 1014.33 1013.66 1012.66 1011.59 1010.53 1009.83 1009.11 1008.45 1007.79 1007.08 1006.54 1006.07 1005.56 1004.85 1004.70 1004.51 1004.41 1004.85
1023.06 1023.69 1025.10 1025.88 1023.99 1019.17 1013.96 1013.02 1013.15 1013.10 1012.37 1010.48 1011.39 1011.54 1012.24 1013.23 1014.11 1013.59 1013.69 1014.51 1014.95 1015.13 1015.53 1015.88 1015.84 1015.45 1014.78 1013.92 1013.10 1012.20 1011.33 1010.57 1010.15 1009.63 1009.10 1008.53 1007.99 1007.37 1007.07 1006.71 1006.47 1006.65 1006.04 1005.68
1023.41 1024.15 1024.85 1025.22 1022.99 1017.97 1012.99 1012.61 1012.78 1012.48 1010.48 1009.38 1010.15 1010.31 1011.42 1012.50 1012.63 1012.76 1013.52 1014.45 1014.73 1014.97 1015.39 1015.87 1015.95 1015.70 1015.06 1014.21 1013.52 1013.02 1012.37 1011.68 1011.27 1010.69 1010.16 1009.71 1009.37 1009.08 1008.79 1008.60 1008.44 1008.32 1008.15 1007.86
1020.65 1021.95 1023.10 1023.32 1021.42 1016.30 1011.73 1012.50 1011.79 1008.97 1008.62 1008.86 1009.41 1009.86 1010.51 1010.94 1011.84 1012.54 1013.31 1013.94 1014.51 1014.80 1015.09 1015.32 1015.53 1015.45 1014.82 1014.20 1013.72 1013.43 1013.15 1012.81 1012.19 1011.62 1011.18 1010.86 1010.60 1010.30 1010.05 1009.84 1009.73 1009.37 1009.08 1008.98
1018.61 1016.72 1017.24 1017.25 1013.68 1011.04 1010.34 1008.88 1008.42 1008.40 1008.62 1008.67 1009.08 1009.34 1009.86 1010.54 1011.22 1011.91 1012.49 1013.14 1013.63 1014.12 1014.56 1014.92 1015.14 1015.13 1014.76 1014.41 1013.97 1013.78 1013.75 1013.32 1012.86 1012.48 1012.22 1011.96 1011.62 1011.32 1011.17 1010.97 1010.77 1010.49 1010.38 1010.31
1015.95 1015.22 1015.04 1014.49 1010.17 1009.62 1009.73 1008.73 1008.48 1008.46 1008.18 1008.30 1008.52 1008.97 1009.50 1009.96 1010.40 1011.03 1011.53 1012.24 1012.92 1013.39 1013.87 1014.32 1014.71 1014.86 1014.77 1014.59 1014.41 1014.23 1014.07 1013.72 1013.54 1013.36 1013.20 1012.90 1012.58 1012.37 1012.05 1011.86 1011.80 1011.74 1011.72 1011.74
1013.78 1013.90 1013.17 1011.81 1009.62 1008.95 1007.93 1007.67 1007.39 1007.35 1007.67 1008.14 1008.20 1008.53 1008.93 1009.41 1009.77 1010.11 1010.76 1011.37 1012.07 1012.65 1013.22 1013.77 1014.18 1014.40 1014.51 1014.51 1014.61 1014.64 1014.46 1014.34 1014.15 1013.99 1013.89 1013.78 1013.50 1013.26 1013.07 1012.86 1012.73 1012.60 1012.72 1012.63
1012.08 1011.20 1011.15 1008.64 1007.50 1007.08 1005.98 1005.81 1006.22 1007.04 1007.29 1007.38 1008.01 1008.50 1008.36 1008.62 1008.89 1009.41 1009.97 1010.49 1011.29 1012.11 1012.66 1013.31 1013.77 1014.11 1014.37 1014.51 1014.66 1014.84 1014.66 1014.58 1014.55 1014.59 1014.40 1014.35 1014.23 1014.10 1013.94 1013.69 1013.45 1013.11 1013.10 1013.09
Thickness
5594 5578 5578 5574 5576 5576 5571 5561 5549 5550 5565 5557 5559 5548 5570 5580 5570 5566 5563 5556 5557 5554 5544 5537 5533 5530 5530 5528 5526 5526 5526 5524 5521 5520 5519 5522 5529 5540 5549 5557 5566 5574 5580 5583
5582 5579 5575 5573 5571 5571 5565 5558 5554 5558 5562 5551 5548 5554 5564 5569 5573 5569 5562 5553 5536 5531 5526 5523 5518 5514 5513 5510 5507 5506 5505 5506 5506 5505 5503 5504 5509 5517 5526 5539 5550 5558 5564 5568
5576 5579 5574 5571 5568 5562 5558 5557 5552 5544 5541 5546 5540 5557 5560 5570 5568 5554 5541 5533 5526 5520 5515 5511 5508 5503 5499 5496 5493 5489 5486 5484 5483 5483 5486 5487 5492 5498 5507 5518 5529 5539 5548 5557
5571 5568 5569 5567 5564 5552 5558 5553 5545 5536 5526 5510 5533 5507 5544 5556 5553 5546 5533 5520 5514 5508 5501 5496 5495 5494 5486 5481 5474 5468 5467 5465 5464 5462 5464 5466 5472 5482 5492 5499 5507 5517 5528 5540
5568 5557 5561 5561 5560 5549 5550 5543 5532 5530 5514 5508 5522 5478 5528 5535 5547 5536 5525 5515 5502 5498 5492 5489 5483 5475 5469 5460 5451 5445 5443 5443 5443 5441 5442 5447 5457 5465 5473 5480 5489 5498 5510 5525
5549 5546 5549 5550 5545 5541 5537 5531 5521 5520 5506 5449 5507 5501 5517 5526 5540 5534 5516 5505 5499 5491 5483 5477 5470 5460 5451 5439 5432 5428 5425 5423 5422 5423 5424 5425 5432 5442 5453 5464 5475 5485 5495 5508
5547 5543 5539 5540 5540 5534 5522 5502 5445 5468 5438 5459 5507 5498 5517 5529 5530 5523 5510 5495 5488 5480 5471 5468 5458 5446 5437 5427 5420 5414 5411 5411 5408 5409 5410 5412 5415 5423 5436 5446 5459 5470 5483 5495
5527 5533 5535 5534 5527 5522 5513 5483 5445 5459 5431 5448 5486 5471 5516 5530 5522 5516 5503 5487 5482 5476 5469 5460 5448 5433 5422 5416 5410 5406 5401 5400 5397 5395 5396 5399 5404 5410 5421 5432 5446 5460 5471 5482
5520 5548 5522 5520 5518 5509 5497 5462 5483 5405 5386 5404 5461 5486 5517 5525 5513 5510 5489 5490 5475 5471 5461 5450 5440 5424 5416 5411 5406 5399 5394 5390 5387 5385 5386 5389 5391 5397 5408 5421 5431 5448 5461 5472
5521 5516 5517 5507 5506 5499 5495 5491 5461 5411 5421 5403 5445 5457 5502 5524 5515 5498 5484 5475 5468 5462 5453 5450 5434 5419 5411 5402 5398 5393 5388 5385 5380 5378 5377 5381 5383 5386 5395 5409 5424 5436 5449 5462
5512 5510 5508 5501 5492 5492 5464 5448 5440 5436 5427 5387 5383 5464 5494 5514 5511 5478 5473 5468 5461 5455 5450 5444 5426 5413 5406 5398 5392 5389 5384 5380 5375 5373 5375 5380 5375 5379 5388 5402 5416 5429 5442 5454
5507 5493 5484 5503 5499 5498 5493 5479 5454 5419 5424 5414 5399 5462 5514 5511 5499 5488 5469 5463 5460 5452 5449 5435 5418 5408 5402 5395 5390 5385 5380 5375 5371 5372 5376 5380 5377 5378 5384 5395 5408 5423 5438 5449
5494 5472 5466 5496 5488 5484 5489 5484 5471 5410 5392 5417 5386 5464 5515 5506 5496 5481 5466 5463 5456 5447 5442 5429 5415 5405 5398 5394 5388 5380 5377 5373 5373 5374 5376 5377 5377 5379 5383 5390 5403 5419 5434 5446
5497 5467 5481 5513 5527 5492 5486 5483 5474 5438 5386 5391 5441 5481 5523 5514 5472 5477 5470 5454 5442 5442 5434 5422 5416 5403 5395 5392 5387 5382 5377 5376 5375 5374 5375 5378 5379 5381 5386 5392 5403 5418 5432 5444
5480 5456 5444 5456 5466 5473 5482 5482 5473 5456 5439 5446 5499 5444 5490 5468 5469 5464 5443 5445 5441 5440 5431 5420 5412 5401 5395 5392 5389 5385 5379 5377 5377 5378 5376 5375 5377 5381 5388 5395 5404 5414 5426 5435
5466 5449 5459 5458 5465 5465 5470 5483 5477 5476 5468 5446 5473 5480 5509 5499 5483 5453 5443 5427 5444 5435 5427 5418 5407 5401 5397 5394 5390 5386 5385 5380 5379 5380 5379 5378 5378 5384 5386 5390 5398 5409 5418 5428
5453 5437 5416 5465 5455 5463 5484 5505 5490 5461 5443 5463 5437 5488 5473 5462 5455 5432 5447 5439 5442 5434 5425 5417 5405 5398 5395 5393 5390 5387 5388 5386 5384 5383 5382 5382 5382 5383 5385 5384 5390 5400 5408 5422
5440 5423 5410 5423 5427 5477 5546 5513 5503 5488 5484 5467 5466 5480 5480 5464 5457 5451 5452 5445 5441 5431 5423 5416 5406 5397 5393 5390 5390 5387 5389 5388 5388 5386 5385 5385 5385 5384 5386 5388 5395 5400 5407 5417
5444 5425 5414 5433 5358 5484 5553 5504 5493 5488 5517 5503 5493 5505 5497 5481 5479 5470 5458 5446 5442 5432 5422 5416 5396 5391 5393 5386 5388 5389 5390 5389 5388 5386 5386 5386 5386 5386 5388 5392 5395 5404 5408 5406
5435 5421 5408 5341 5403 5459 5544 5515 5502 5504 5491 5519 5502 5501 5491 5486 5465 5458 5459 5445 5441 5417 5406 5401 5397 5390 5388 5388 5386 5389 5389 5389 5387 5386 5386 5385 5386 5386 5385 5388 5393 5396 5403 5411
5419 5399 5393 5356 5367 5443 5508 5505 5499 5487 5532 5528 5505 5506 5491 5481 5468 5458 5458 5440 5423 5415 5409 5400 5394 5389 5388 5386 5388 5385 5386 5385 5384 5384 5384 5384 5383 5383 5384 5385 5388 5390 5394 5399
5426 5416 5388 5353 5361 5466 5502 5491 5508 5537 5533 5528 5511 5503 5497 5490 5469 5465 5454 5435 5426 5421 5409 5404 5400 5394 5390 5388 5390 5386 5384 5380 5380 5381 5380 5380 5380 5380 5381 5383 5386 5389 5392 5394
5442 5467 5446 5454 5484 5515 5503 5524 5523 5522 5523 5522 5511 5505 5496 5486 5473 5462 5454 5442 5434 5425 5420 5409 5405 5401 5395 5392 5394 5389 5381 5380 5379 5379 5376 5376 5376 5377 5377 5379 5382 5384 5386 5388
5444 5461 5465 5471 5527 5513 5498 5511 5512 5511 5513 5514 5508 5503 5492 5488 5479 5468 5458 5448 5439 5430 5421 5412 5405 5400 5396 5391 5390 5386 5383 5381 5377 5376 5375 5374 5374 5374 5375 5376 5377 5378 5379 5380
5463 5462 5463 5470 5503 5505 5519 5511 5518 5518 5514 5508 5505 5501 5493 5486 5480 5472 5461 5450 5441 5432 5421 5412 5407 5403 5398 5392 5387 5383 5382 5379 5378 5375 5374 5373 5373 5372 5373 5375 5375 5375 5375 5376
5461 5473 5481 5507 5513 5528 5539 5537 5526 5514 5512 5511 5503 5496 5494 5489 5485 5473 5462 5452 5442 5431 5420 5412 5407 5401 5396 5389 5385 5382 5380 5379 5377 5376 5374 5371 5371 5370 5371 5373 5375 5380 5380 5381